www.pogodaiklimat.ru

Погода и климат >> Архив погоды >> Россия >> Сахалинская область >> Москальво


АРХИВ ПОГОДЫ в Москальво

Время (UTC), дата Ветер
(напр.,м/с)
 
Видим.   Явления Облачность Т
(С)
Тd
(С)
f
(%)
Тe
(С)
Тes
(С)
Комфортность P
(гПа)
Po
(гПа)
Тmin
(С)
Tmax
(С)
R
(мм)
R24
(мм)
S
(см)
06 19.08 ЮВ 3-4
{4}
20 км 10/3 300 м
[St Ac As]
+17.3 +12.2 72 +17 +18 1017.0 1016.3
09 19.08 ЮВ 5-8
{8}
20 км 9/0
[Ac As]
+15.2 +12.1 82 +14 +14 1017.4 1016.7 +17.6 0.0
12 19.08 ЮВ 6-9
{10}
20 км 10/0
[Ac As]
+12.6 +12.0 96 +10 +10 1018.2 1017.4
15 19.08 ЮВ 5-8
{9}
20 км 10/0
[Ac As]
+11.9 +11.7 99 +9 +9 1017.8 1017.0
18 19.08 ЮВ 6-9
{9}
20 км 10/10 300 м
[St]
+11.6 +11.6 100 +8 +8 1017.7 1016.9
21 19.08 ЮВ 5-8
{9}
20 км 10/10 300 м
[St]
+11.5 +11.2 98 +9 +9 1017.6 1016.9 +11.5
00 20.08 ЮВ 4-6
{8}
20 км 10/10 300 м
[St]
+12.9 +12.1 95 +11 +11 1017.3 1016.5
03 20.08 ЮВ 4-5
{7}
20 км 10/3 300 м
[St Ac As]
+14.6 +12.0 84 +13 +15 1017.2 1016.5
06 20.08 ЮВ 6-10
{10}
10 км слаб. дождь {морось} 10/10 300 м
[Frnb Ns]
+12.7 +11.8 94 +10 +10 1017.3 1016.6
09 20.08 ЮВ 5-9
{10}
4000 м дождь 10/10 300 м
[Frnb Ns]
+11.4 +11.4 100 +9 +9 1018.2 1017.5 +14.8 4
12 20.08 ЮВ 6-9
{10}
20 км {дождь} 10/10 300 м
[St]
+11.3 +11.3 100 +8 +8 1019.1 1018.3
15 20.08 ЮВ 5-8
{9}
20 км 10/10 300 м
[St]
+11.5 +11.5 100 +9 +9 1019.3 1018.5
18 20.08 ЮВ 5-8
{9}
20 км 10/10 300 м
[St]
+11.3 +11.3 100 +8 +8 1019.4 1018.6
21 20.08 ЮВ 5-8
{9}
20 км 10/10 300 м
[St]
+11.5 +11.5 100 +9 +9 1020.0 1019.2 +11.1 2
00 21.08 ЮВ 5-8
{9}
20 км 10/10 300 м
[St]
+13.0 +11.7 92 +11 +11 1020.3 1019.6
03 21.08 ЮВ 6-10
{10}
20 км 10/10 300 м
[St]
+13.7 +11.8 88 +11 +11 1020.3 1019.5
06 21.08 ЮВ 6-9
{10}
20 км 9/4 300 м
[St Cs]
+14.8 +10.7 76 +13 +14 1019.7 1018.9
09 21.08 ЮВ 6-8
{10}
20 км 10/10 300 м
[St]
+11.6 +9.3 86 +9 +9 1019.9 1019.1 +15.5
12 21.08 ЮВ 6-8
{10}
20 км 10/10 300 м
[St]
+11.0 +9.2 89 +8 +8 1020.4 1019.6
15 21.08 ЮВ 4-7
{9}
20 км 10/10 300 м
[St]
+10.6 +9.7 94 +8 +8 1020.0 1019.3
18 21.08 ЮВ 4-7
{9}
20 км 10/10 300 м
[St]
+10.2 +9.4 95 +7 +7 1019.7 1018.9
21 21.08 ЮВ 4-6
{7}
20 км 10/10 300 м
[St]
+10.4 +9.7 95 +8 +8 1019.8 1019.0 +10.1
00 22.08 ЮВ 4-7
{8}
4000 м дымка 10/10 300 м
[St]
+11.7 +10.6 93 +9 +9 1019.8 1019.0
03 22.08 ЮВ 5-7
{8}
20 км 9/9 300 м
[St]
+12.7 +9.7 82 +10 +11 1019.8 1019.0
06 22.08 ЮВ 5-7
{8}
20 км 3/0
[Ac lent]
+16.4 +10.1 66 +16 +18 1018.4 1017.7
09 22.08 ЮВ 5-7
{8}
20 км 1/0
[Ci fib]
+13.4 +9.6 78 +11 +12 1018.8 1018.0 +16.5
12 22.08 ЮВ 5-6
{8}
20 км 1/0
[Ac lent]
+10.3 +10.0 98 +7 +7 1019.4 1018.6
15 22.08 ЮВ 4-7
{8}
20 км 9/9 300 м
[St]
+8.7 +8.7 100 +5 +5 1019.5 1018.7
18 22.08 Ю 4-7
{9}
20 км 10/10 300 м
[St]
+9.0 +8.7 98 +6 +6 1019.5 1018.8
21 22.08 ЮВ 4-6
{7}
20 км 9/9 300 м
[St]
+9.9 +9.1 95 +7 +7 1019.6 1018.8 +8.6
00 23.08 ЮВ 4-7
{8}
20 км 10/10 300 м
[St]
+12.3 +9.1 81 +10 +10 1019.4 1018.6
03 23.08 ЮВ 5-5
{8}
20 км 10/10 300 м
[St]
+13.4 +9.5 77 +11 +11 1019.0 1018.3
06 23.08 ЮВ 5-8
{8}
20 км 10/10 300 м
[St]
+13.4 +9.1 75 +11 +11 1018.4 1017.7
09 23.08 ЮВ 5-8
{9}
20 км 10/10 300 м
[St]
+11.2 +8.8 85 +8 +8 1018.3 1017.6 +14.2
12 23.08 ЮВ 5-9
{9}
20 км 10/10 300 м
[St]
+10.5 +9.6 94 +7 +7 1018.8 1018.1
15 23.08 Ю 3-6
{9}
20 км 10/10 300 м
[St]
+10.2 +9.9 98 +8 +8 1018.5 1017.7
18 23.08 Ю 3-5
{8}
20 км 10/10 300 м
[St]
+10.5 +7.9 84 +8 +8 1018.2 1017.4
21 23.08 В 3-4
{6}
20 км 10/10 300 м
[St]
+10.9 +9.7 92 +9 +9 1018.0 1017.2 +10.2
03 24.08 ЮВ 4-6
{7}
20 км 10/10 300 м
[St]
+14.5 +10.0 74 +13 +13 1017.0 1016.2
09 24.08 В 4-7
{7}
20 км 9/9 300 м
[St]
+12.3 +9.7 84 +10 +10 1016.0 1015.2 +15.6
12 24.08 В 3-4
{7}
20 км 10/10 300 м
[St]
+10.4 +10.4 100 +8 +8 1015.8 1015.0
15 24.08 В 1-1
{4}
20 км 10/10 300 м
[St]
+9.7 +9.7 100 +9 +9 1015.1 1014.3
18 24.08 СВ 1-2
{2}
20 км 10/10 300 м
[St]
+10.0 +10.0 100 +9 +9 1014.3 1013.6
21 24.08 СВ 2-2
{3}
4000 м слаб. морось 10/10 300 м
[St]
+10.5 +10.5 100 +9 +9 1014.2 1013.5 +9.4 0.0
00 25.08 В 2-3
{3}
20 км {морось} 9/9 300 м
[Cb cap]
+13.2 +11.1 87 +12 +13 1013.7 1013.0
03 25.08 СЗ 3-4
{4}
4000 м слаб. морось 10/10 300 м
[St]
+12.6 +11.9 95 +11 +11 1013.0 1012.2
06 25.08 С 2-4
{5}
4000 м слаб. морось 9/9 300 м
[St]
+13.4 +12.5 94 +13 +13 1012.2 1011.5
09 25.08 штиль 0
{4}
2000 м в посл. час морось 10/10 300 м
[St]
+11.9 +11.9 100 +11 +11 1012.0 1011.3 +13.6 0.6
15 25.08 Ю 1-2
{3}
20 км 10/10 300 м
[St]
+10.8 +10.8 100 +10 +10 1011.3 1010.5
21 25.08 ЮЗ 1-2
{2}
2000 м в посл. час морось 10/10 300 м
[St]
+11.6 +11.6 100 +11 +11 1010.8 1010.0 +10.3 1
03 26.08 СЗ 1-2
{4}
20 км {морось} 10/10 300 м
[St]
+15.2 +9.9 71 +16 +16 1009.3 1008.5

 

Местоположение метеостанции Москальво (Сахалинская область, Россия): широта 53.57 долгота 142.50 высота над уровнем моря 6 м.

В архиве по умолчанию представлена погода в Москальво за последнюю неделю. Архивные данные за месяц целиком и за предыдущие месяцы, начиная с января 2011 года, Вы можете получить, выбрав интересующий диапазон дат из раскрывающегося списка и нажав кнопку "Ввод!".


*Определитесь, кто Вы:
робот инопланетянин человек

Внимание! Время в таблицах - всемирное. Для получения местного времени необходимо прибавить поправку, которая равна 11 ч.

Смотрите также архив погоды в соседних городах и на ближайших метеорологических станциях:

Погода в Оха (Сахалинская область, Россия) (28 км)
Погода в Одопту (Сахалинская область, Россия) (50 км)
Погода в Байдукове (Хабаровский край, Россия) (79 км)
Погода в Ныврово (Сахалинская область, Россия) (85 км)
Погода в Николаевск-на-Амуре (Хабаровский край, Россия) (128 км)
Погода в Джаоре (Хабаровский край, Россия) (132 км)
Погода в Вале (Сахалинская область, Россия) (142 км)
Погода в Литке (Хабаровский край, Россия) (151 км)
Погода в Погибях (Сахалинская область, Россия) (162 км)
Погода в Ногликах (Сахалинская область, Россия) (188 км)

Пояснения к столбцам:

Ветер - указаны скорость ветра в м/с - средняя за 10 мин, порывы в срок и между сроками (в фигурных скобках) и направление, откуда дует ветер: С - северный, СВ - северо-восточный, В - восточный, ЮВ - юго-восточный, Ю - южный, ЮЗ - юго-западный, З - западный, СЗ - северо-западный.
Видимость - горизонтальная дальность видимости в метрах или километрах. При видимости от 1 до 10 км при отсутствии осадков обычно наблюдается дымка, при ухудшении видимости до 1 км и менее - туман. В сухую погоду видимость может ухудшаться дымом, пылью или мглою.
Явления - указаны атмосферные явления, наблюдавшиеся в срок или в последний час перед сроком; фигурными скобками обозначены явления, наблюдавшиеся между сроками (за 1-3 часа до срока); квадратными скобками обозначены град или гололедные отложения с указанием их диаметра в мм.
Облачность - указаны через наклонную черту общая и нижняя облачность в баллах и высота нижней границы облаков в метрах; квадратными скобками обозначены формы облаков: Ci - перистые, Cs - перисто-слоистые, Cc - перисто-кучевые, Ac - высококучевые, As - высокослоистые, Sc - слоисто-кучевые, Ns - слоисто-дождевые, Cu - кучевые, Cb - кучево-дождевые. Подробнее классификацию облаков см. в Атласе облаков (PDF).
T - Температура воздуха - температура, измеренная на высоте 2 м над землей.
Td - Температура точки росы - температура, при понижении до которой содержащийся в воздухе водяной пар достигнет насыщения.
f - Относительная влажность воздуха - влажноcть воздуха, измеренная на высоте 2 м над землей.
Te - Эффективная температура - температура, которую ощущает одетый по сезону человек в тени. Характеристика душности погоды. При расчете учитывается влияние влажности воздуха и скорости ветра на теплоощущения человека.
Tes - Эффективная температура на солнце - температура, которую ощущает человек, с поправкой на солнечный нагрев. Характеристика знойности погоды. Зависит от высоты солнца над горизонтом, облачности и скорости ветра. Ночью, в пасмурную погоду, а также при ветре 12 м/с и более поправка равна нулю.
P - Атмосферное давление - приведенное к уровню моря атмосферное давление.
Po - Атмосферное давление - измеренное на уровне метеостанции атмосферное давление.
Tmin - Минимальная температура - минимум температуры воздуха на высоте 2 м над землей.
Tmax - Максимальная температура - максимум температуры воздуха на высоте 2 м над землей.
R - Количество осадков - Количество выпавших осадков за период времени, мм. При наведении курсора мыши на число - период времени, за который выпало указанное количество осадков.
R24 - Количество осадков - Количество выпавших осадков за 24 часа, мм.
S - Снежный покров - Высота снежного покрова, см. При наведении курсора мыши на число - состояние снежного покрова и степень покрытия местности в баллах.